Temperature
26 25 25 25 24 23 23 23 23 22 22 22 21 20 19 18 17 16 15 15 14 13 12 11 10 9 9 8 7 7 6 6 6 6 6 6 6 6 6 6 6 7 7 8
25 25 25 24 23 23 23 23 23 22 22 22 20 19 18 17 16 16 15 14 13 12 11 10 10 9 8 7 7 6 6 6 6 6 6 6 6 5 5 5 5 5 6 6
25 25 24 24 24 23 23 23 22 22 22 22 20 19 17 16 16 15 14 13 12 11 11 10 9 8 7 7 6 6 6 6 6 5 5 5 5 5 5 5 5 5 5 5
25 24 23 24 24 23 22 22 22 22 22 21 19 18 16 16 15 14 13 12 11 11 10 10 9 8 7 7 6 6 6 6 5 5 5 5 5 4 4 4 4 4 4 5
25 24 25 24 23 23 22 22 22 21 21 20 19 18 19 16 14 13 12 11 11 10 10 9 8 7 7 6 6 6 6 6 5 5 5 5 4 4 4 4 4 4 4 4
24 23 23 24 23 22 22 22 22 21 20 19 18 19 19 16 14 13 11 11 10 10 9 9 8 7 6 6 6 6 6 5 5 5 5 4 4 4 4 4 4 4 4 4
24 23 25 24 22 21 22 22 21 20 19 18 18 17 16 14 13 12 11 10 10 9 9 8 7 6 6 6 6 6 5 5 5 5 5 5 5 4 4 4 4 4 4 4
23 23 24 23 22 22 22 21 20 19 18 17 16 16 15 14 12 11 11 10 10 9 9 8 7 6 6 6 6 5 5 5 5 5 5 5 5 5 4 4 4 4 4 4
24 24 23 22 22 22 21 20 19 19 18 17 16 15 14 13 12 11 10 10 9 9 8 8 7 7 6 6 5 5 5 5 5 5 5 5 5 5 5 4 4 4 4 4
23 24 23 22 21 21 20 19 18 18 17 16 15 15 14 13 12 11 10 9 9 8 8 8 7 7 6 6 6 5 5 5 5 5 5 5 5 5 5 5 4 4 4 4
23 23 23 22 21 21 20 19 18 17 16 15 15 14 13 12 11 10 10 9 8 8 7 7 7 7 6 6 6 5 5 5 5 5 6 6 6 6 5 5 4 4 4 4
24 24 23 23 22 20 19 18 18 17 16 15 14 13 12 12 11 10 9 9 8 7 7 7 7 7 6 6 6 6 5 5 5 6 6 6 6 6 6 5 5 5 5 5
23 23 23 22 21 20 19 18 17 16 15 15 14 13 12 11 10 10 9 8 7 7 6 6 6 6 6 6 6 6 6 5 5 6 6 6 6 6 6 6 5 5 5 5
21 20 21 21 20 19 19 18 17 16 15 14 13 12 12 11 10 9 9 8 6 6 6 6 6 6 6 6 6 6 6 6 6 6 6 6 7 7 6 6 6 5 5 5
21 20 20 21 20 19 18 17 17 16 16 14 13 12 12 11 10 9 8 7 6 6 6 5 5 6 6 6 6 6 6 6 6 6 7 7 7 7 7 6 6 6 5 5
22 20 19 19 19 18 18 17 17 17 16 14 13 12 11 10 9 8 7 6 5 5 5 5 5 5 6 6 6 6 6 6 6 6 7 7 7 7 7 7 6 6 6 6
21 21 19 18 18 18 18 18 17 16 16 14 13 12 11 10 9 8 7 6 5 5 5 4 4 5 5 5 6 6 6 6 6 7 7 7 8 7 7 7 7 6 6 6
20 20 19 19 19 19 18 17 17 16 14 13 12 11 10 9 9 7 7 7 5 5 4 4 4 5 5 5 6 6 6 6 7 7 7 8 8 7 7 7 7 7 7 6
19 19 19 18 18 18 18 17 16 15 14 13 11 11 10 9 8 7 7 6 5 5 4 4 4 4 5 6 6 6 6 6 7 7 7 8 8 8 7 7 7 7 7 7
18 18 18 18 17 17 17 16 15 14 13 12 11 10 10 9 8 7 6 5 5 4 4 4 4 4 5 6 6 6 6 6 7 7 7 8 8 8 8 8 7 7 7 7
17 17 17 17 17 17 16 16 15 14 13 12 11 10 9 9 8 7 7 6 5 5 5 4 4 4 5 6 6 6 6 6 6 7 7 7 8 8 8 8 7 7 7 7
15 16 16 16 16 16 16 16 15 14 13 12 11 10 9 9 8 7 7 6 5 5 5 4 4 4 5 6 6 6 6 6 6 6 7 7 7 8 8 8 8 7 7 7
15 15 15 15 15 15 15 15 14 14 13 12 11 10 10 9 9 8 7 6 6 6 5 4 4 4 5 5 6 6 6 6 6 6 6 7 7 7 8 8 8 8 8 8
14 14 14 14 14 14 14 14 13 13 12 12 11 10 10 9 9 8 7 7 6 6 5 5 5 5 5 5 5 6 6 6 6 6 6 6 7 7 8 8 8 8 8 8
13 14 14 14 14 14 14 13 13 12 11 11 11 10 10 9 8 8 7 6 6 6 5 5 5 5 5 5 5 5 6 6 6 6 6 6 7 7 7 8 8 9 9 9
13 13 14 13 13 14 14 14 13 12 11 11 11 10 10 9 8 8 7 6 5 5 5 4 4 4 4 4 5 5 5 6 6 7 7 6 7 7 7 8 8 9 9 9
13 13 14 14 14 14 13 13 12 12 11 11 11 10 9 9 8 7 6 6 5 5 4 4 4 4 4 4 4 5 5 6 7 7 7 7 7 7 7 8 8 9 9 9
Wind_Speed
3 2 3 4 3 3 3 6 9 13 15 14 11 10 12 14 16 17 17 17 18 18 18 18 18 18 18 18 17 17 18 18 19 19 19 19 19 18 18 18 18 18 19 19
4 3 5 7 6 5 4 6 10 13 13 8 7 11 14 15 17 17 17 18 19 19 19 18 18 17 17 17 17 17 18 18 19 19 19 19 19 19 19 18 18 18 18 18
7 2 8 8 7 6 4 7 10 12 13 13 13 14 16 16 16 16 17 18 19 19 18 17 17 16 17 16 17 17 17 18 18 19 19 20 20 20 19 19 18 18 17 17
8 6 8 3 5 3 6 9 8 10 13 12 13 13 15 13 12 15 17 18 18 18 17 16 16 16 15 16 16 17 17 18 18 18 20 20 20 20 19 17 16 16 16 16
8 10 11 3 5 3 6 10 5 9 11 11 12 15 9 5 11 15 16 17 16 16 17 16 15 15 16 16 16 17 17 18 18 19 20 20 19 19 17 16 16 15 15 15
9 12 11 1 8 2 4 4 3 7 10 12 13 13 11 14 15 16 16 15 16 16 16 15 15 15 16 16 17 17 17 18 19 19 19 19 19 18 15 14 14 14 14 13
11 12 8 6 8 4 6 8 8 8 9 11 11 12 15 16 15 15 16 16 15 15 15 14 14 14 16 17 17 17 17 18 19 18 18 18 17 15 14 12 12 12 13 12
6 7 4 10 7 4 6 5 6 8 9 10 11 13 14 15 15 16 16 16 16 14 15 14 14 14 16 17 17 17 17 18 18 18 17 15 16 15 13 11 11 10 10 10
5 6 1 9 8 4 4 6 7 7 8 9 12 14 14 14 15 16 16 16 15 15 15 15 14 13 15 17 16 16 17 18 18 18 16 15 14 14 12 10 8 8 7 7
9 10 8 9 11 10 8 8 7 7 8 9 12 14 14 14 15 16 16 16 15 15 16 16 15 14 14 15 15 15 16 17 16 16 15 14 12 10 9 9 8 7 6 5
13 13 10 11 12 10 9 9 8 7 8 9 11 13 14 13 14 15 16 15 15 14 15 16 16 15 15 14 14 15 15 15 15 15 14 13 12 9 9 8 6 8 7 6
11 8 7 6 6 7 8 9 8 8 8 9 10 12 13 13 14 15 16 16 15 16 16 17 16 16 15 14 14 14 13 13 12 12 12 12 11 10 5 5 4 5 7 8
12 8 8 7 6 6 7 7 7 7 8 9 9 10 12 13 14 15 16 16 15 16 16 16 16 16 15 15 15 15 14 13 11 12 11 11 10 10 9 3 3 1 3 4
11 9 10 11 9 8 8 7 6 7 7 7 8 9 11 13 14 15 15 15 15 15 15 15 16 16 16 16 16 16 15 14 12 11 10 10 10 9 7 7 4 1 2 4
11 13 13 9 8 9 9 8 8 7 7 7 7 9 11 13 14 15 14 14 14 15 15 15 15 16 17 17 16 16 14 11 10 10 10 9 9 7 6 5 4 3 2 3
9 10 13 12 12 11 11 10 9 8 6 6 7 8 10 12 13 13 12 12 13 15 15 14 15 17 18 16 16 13 12 15 13 10 9 8 7 6 5 4 3 2 2 2
11 11 13 15 15 14 12 11 9 7 6 5 6 7 9 11 12 12 12 12 12 13 12 13 16 17 17 15 14 11 11 12 14 10 7 7 7 6 5 4 3 2 2 2
10 11 10 12 13 13 12 11 9 7 6 5 5 6 8 10 11 12 12 13 13 12 12 14 16 17 16 14 13 11 10 10 10 9 7 6 7 6 5 4 3 2 1 2
8 9 10 10 10 10 10 9 8 7 6 5 5 6 7 8 9 10 10 11 12 13 14 16 17 16 15 15 16 10 10 10 10 8 7 6 5 4 4 4 4 3 3 2
8 8 9 11 11 10 9 8 7 7 7 7 6 6 7 7 7 8 8 8 7 9 13 16 16 14 14 15 17 10 10 10 10 9 7 6 5 5 4 4 4 4 3 3
11 8 9 11 11 11 10 9 9 9 9 8 8 7 6 6 6 6 7 7 8 10 13 14 11 12 13 15 14 10 9 10 10 9 8 6 6 5 4 5 5 4 4 3
14 11 10 10 11 10 10 9 10 10 10 10 9 7 6 6 6 6 5 5 7 9 10 9 10 13 18 16 10 9 9 9 9 8 8 7 6 5 4 4 4 4 3 3
13 12 11 10 11 10 9 9 10 10 11 11 10 8 7 5 5 5 5 5 7 10 10 8 12 17 19 11 9 9 9 9 9 9 8 7 6 4 3 3 2 3 3 3
14 12 10 9 9 10 11 11 10 10 11 11 10 9 7 5 5 4 4 2 3 8 9 7 10 15 14 8 9 9 9 9 9 8 8 7 6 5 3 2 1 2 3 2
16 15 13 12 10 10 11 12 12 12 12 10 10 9 7 5 4 3 4 5 4 6 8 6 7 11 10 9 9 9 9 9 9 9 8 7 6 5 4 2 1 1 2 2
18 17 15 14 13 12 12 12 12 11 11 10 10 9 8 6 4 3 3 4 5 5 6 7 8 8 9 9 9 9 9 9 9 8 8 8 7 6 5 4 2 1 0 1
18 17 14 14 14 13 12 12 12 12 12 12 11 10 9 7 5 3 2 2 3 4 5 6 7 8 8 9 9 9 9 9 9 8 8 7 7 6 5 5 4 2 1 1
Wind_Direction
11 339 297 297 279 282 326 339 325 326 320 326 337 327 319 316 316 318 320 321 320 320 319 318 317 316 315 315 315 315 313 310 309 310 308 306 303 301 298 294 289 284 277 267
260 235 271 270 256 244 278 315 318 316 322 348 325 312 315 318 321 322 322 321 321 320 320 319 319 317 317 314 314 313 310 309 310 310 308 307 305 301 297 294 291 287 280 273
299 289 279 265 220 224 276 320 317 314 323 328 315 318 319 317 317 321 321 321 320 319 319 319 318 318 315 314 312 310 308 308 308 309 308 306 305 303 299 297 293 288 283 275
295 289 281 53 124 210 287 307 308 306 313 318 314 315 304 300 311 320 319 318 317 317 318 317 319 319 316 312 309 308 307 310 312 312 309 307 305 301 298 295 291 287 284 278
287 289 294 168 179 227 300 308 309 314 316 315 318 310 312 11 326 316 316 316 314 314 315 316 317 320 316 310 309 309 310 314 314 312 310 307 304 300 299 295 289 285 282 279
274 291 296 9 138 142 282 287 10 317 312 316 318 315 331 342 329 322 320 317 315 314 313 315 321 320 313 310 310 309 313 313 313 311 309 307 305 302 299 293 287 284 280 276
273 280 285 124 143 186 287 341 347 322 313 311 315 311 316 321 321 321 319 316 314 312 312 318 320 317 310 308 307 309 312 310 311 311 310 308 308 305 302 296 289 284 280 275
274 277 292 139 166 245 317 328 312 312 308 308 309 311 314 317 319 319 319 318 317 314 314 318 319 316 310 308 309 310 308 309 311 313 314 313 312 309 306 302 294 287 281 275
272 287 34 188 217 251 280 287 298 303 308 310 310 314 318 319 320 321 320 319 317 314 314 317 321 319 311 310 311 308 306 307 310 312 313 311 312 313 311 306 297 292 285 278
267 272 258 231 235 245 250 263 282 292 298 305 309 315 318 319 320 321 320 319 318 317 315 317 320 318 312 310 310 306 304 306 308 310 311 313 313 314 315 315 311 304 297 284
262 274 271 241 233 238 239 244 259 271 284 298 307 312 316 316 317 320 319 319 318 316 314 314 317 316 315 314 312 307 304 303 305 308 311 311 312 314 314 316 315 305 307 307
270 282 250 243 207 215 223 232 247 264 280 291 302 308 311 312 316 317 318 319 318 318 317 316 316 315 318 320 317 310 306 304 303 306 309 311 315 317 291 269 296 287 281 285
263 276 255 245 211 204 214 226 238 251 270 288 301 306 308 311 314 318 318 321 323 321 318 315 314 316 322 326 321 315 309 304 300 301 306 313 317 321 329 317 198 160 354 302
249 248 248 237 229 212 212 217 233 249 264 283 298 304 308 312 316 320 324 327 326 321 317 317 318 321 329 328 322 318 314 305 299 296 301 308 314 320 331 338 354 36 80 45
242 232 240 250 217 201 202 212 230 249 264 282 294 302 311 317 319 322 325 328 324 321 321 322 323 327 331 327 323 319 316 311 306 302 301 306 315 323 335 345 2 19 41 87
267 242 237 229 213 208 205 215 234 255 272 286 295 305 315 318 319 321 327 329 326 322 322 324 327 329 327 325 323 320 318 312 311 305 303 310 322 330 337 350 3 31 50 63
269 256 236 224 215 212 213 220 233 253 270 278 289 304 314 319 320 326 331 333 326 317 320 330 329 328 325 325 324 320 318 315 309 302 309 321 329 336 341 353 2 22 52 53
277 268 250 228 218 212 212 218 226 237 250 262 277 296 312 321 324 328 330 330 326 325 336 336 333 328 326 329 329 322 318 316 316 319 322 326 333 339 347 352 4 3 342 176
296 265 241 219 210 206 207 211 217 225 230 235 252 282 305 314 322 326 328 326 328 334 339 336 330 326 331 335 335 323 323 324 324 320 318 314 315 349 4 3 2 358 349 329
314 273 238 217 206 206 208 207 209 214 218 221 235 262 290 310 321 323 325 321 334 340 332 329 327 330 335 337 335 326 328 330 329 329 324 324 339 3 16 14 16 8 357 353
339 303 259 234 219 212 212 209 209 213 214 215 225 249 279 299 307 314 319 326 342 346 332 319 324 337 338 333 324 329 333 335 334 333 331 328 334 351 16 23 20 11 6 2
352 336 305 272 248 231 217 213 214 216 214 214 220 236 261 280 294 304 311 320 329 348 333 327 339 342 335 328 331 336 339 339 338 337 336 334 336 342 5 22 28 22 18 21
345 343 329 304 281 264 245 232 225 224 220 216 218 227 247 278 296 301 314 340 333 340 327 334 341 334 331 333 339 341 343 344 342 338 337 333 331 332 348 14 38 44 41 32
327 330 323 304 287 272 258 245 235 232 225 219 219 220 231 251 260 265 313 330 323 327 322 341 334 330 328 342 346 345 346 346 344 339 338 339 338 339 340 340 17 64 74 55
312 309 298 285 272 262 261 254 241 231 223 217 216 210 218 235 264 298 316 323 347 325 326 339 336 330 339 350 351 349 347 348 344 338 340 343 342 340 335 335 1 55 84 68
300 295 292 285 277 268 264 256 241 224 215 213 211 205 206 206 220 247 277 312 328 326 330 340 345 344 350 351 353 351 349 347 347 347 345 340 339 341 339 338 327 317 45 62
290 288 284 282 280 277 272 262 245 230 217 212 206 196 192 191 197 217 270 319 339 351 354 353 351 352 352 353 354 355 354 353 350 348 344 340 338 335 330 322 313 292 267 149
Height
1511 1511 1511 1513 1515 1516 1516 1518 1518 1517 1515 1510 1512 1515 1516 1515 1513 1510 1507 1504 1501 1498 1494 1489 1485 1480 1475 1470 1465 1460 1455 1450 1446 1441 1437 1433 1429 1426 1422 1419 1417 1414 1413 1412
1512 1512 1512 1514 1515 1517 1517 1516 1515 1514 1512 1509 1514 1515 1514 1512 1510 1507 1504 1501 1497 1493 1489 1485 1480 1475 1470 1464 1460 1455 1450 1446 1441 1436 1431 1427 1423 1418 1415 1411 1408 1405 1403 1402
1511 1509 1513 1513 1510 1514 1514 1513 1514 1514 1512 1510 1511 1512 1512 1510 1507 1505 1502 1498 1494 1489 1485 1481 1476 1471 1465 1460 1456 1451 1446 1441 1436 1431 1426 1421 1416 1411 1407 1403 1399 1396 1394 1392
1509 1515 1524 1510 1507 1511 1514 1512 1510 1511 1510 1510 1511 1511 1509 1506 1505 1502 1499 1495 1490 1486 1481 1477 1472 1467 1461 1456 1452 1447 1442 1437 1432 1426 1420 1414 1409 1404 1399 1395 1391 1388 1385 1384
1510 1510 1506 1506 1509 1510 1512 1510 1508 1510 1510 1510 1508 1507 1501 1503 1503 1500 1496 1492 1487 1483 1478 1473 1468 1462 1457 1452 1448 1443 1438 1432 1426 1420 1414 1407 1402 1396 1391 1387 1383 1380 1378 1376
1508 1517 1517 1502 1506 1510 1513 1508 1507 1508 1508 1507 1506 1501 1499 1500 1499 1495 1492 1488 1483 1478 1473 1468 1463 1458 1452 1447 1443 1438 1433 1427 1421 1414 1408 1402 1396 1390 1385 1380 1376 1373 1371 1369
1506 1509 1499 1499 1506 1510 1510 1508 1506 1506 1506 1506 1504 1503 1501 1498 1495 1492 1487 1483 1478 1474 1469 1464 1458 1453 1447 1442 1438 1433 1427 1421 1415 1409 1403 1396 1390 1385 1379 1375 1370 1367 1365 1363
1505 1509 1504 1502 1504 1504 1504 1504 1504 1504 1504 1503 1502 1500 1497 1495 1491 1487 1483 1478 1474 1469 1464 1459 1454 1448 1443 1437 1433 1427 1421 1416 1410 1405 1398 1393 1386 1381 1376 1371 1366 1363 1360 1358
1497 1499 1498 1499 1499 1500 1501 1502 1502 1501 1501 1500 1498 1496 1493 1490 1487 1483 1479 1474 1469 1465 1460 1455 1450 1445 1438 1433 1427 1421 1416 1411 1406 1400 1394 1388 1383 1377 1372 1368 1364 1360 1358 1356
1496 1491 1494 1496 1497 1498 1498 1499 1499 1499 1498 1497 1495 1492 1490 1487 1483 1479 1475 1470 1466 1461 1456 1451 1446 1440 1435 1428 1422 1417 1411 1406 1401 1396 1390 1385 1380 1375 1370 1365 1361 1358 1356 1354
1493 1490 1491 1491 1492 1494 1494 1495 1495 1495 1495 1494 1492 1489 1487 1483 1480 1476 1471 1467 1462 1457 1452 1447 1441 1436 1430 1424 1418 1412 1406 1401 1397 1392 1387 1382 1377 1372 1368 1363 1360 1357 1355 1354
1487 1484 1487 1486 1488 1490 1491 1491 1492 1492 1491 1490 1489 1486 1484 1481 1477 1473 1468 1463 1458 1453 1448 1442 1437 1432 1427 1421 1414 1408 1402 1397 1393 1389 1384 1380 1375 1370 1366 1362 1357 1355 1353 1352
1484 1483 1484 1484 1485 1486 1487 1488 1488 1488 1487 1486 1485 1483 1480 1477 1474 1469 1465 1460 1455 1449 1443 1438 1433 1428 1423 1417 1410 1404 1398 1393 1389 1385 1381 1377 1373 1368 1364 1360 1356 1354 1352 1350
1480 1481 1480 1481 1482 1482 1483 1484 1484 1484 1483 1483 1481 1479 1477 1474 1470 1466 1461 1456 1450 1444 1439 1434 1429 1424 1419 1413 1407 1401 1395 1389 1385 1382 1378 1375 1371 1367 1363 1359 1356 1353 1351 1350
1475 1475 1475 1476 1477 1478 1479 1480 1480 1480 1480 1479 1478 1476 1474 1470 1467 1462 1457 1451 1446 1441 1436 1431 1426 1420 1414 1408 1403 1397 1392 1387 1383 1379 1376 1373 1369 1366 1363 1359 1356 1354 1352 1350
1470 1470 1470 1471 1472 1473 1474 1475 1476 1476 1476 1475 1474 1473 1470 1467 1463 1459 1454 1448 1442 1437 1432 1428 1422 1416 1410 1405 1400 1395 1389 1385 1381 1377 1374 1371 1368 1365 1362 1360 1357 1355 1353 1352
1466 1465 1464 1464 1466 1467 1469 1471 1472 1472 1472 1471 1470 1469 1466 1463 1459 1455 1450 1444 1439 1435 1431 1425 1419 1413 1408 1403 1398 1393 1387 1383 1379 1376 1373 1371 1368 1365 1362 1360 1358 1356 1355 1353
1461 1461 1460 1460 1461 1463 1465 1466 1467 1467 1467 1467 1466 1465 1462 1459 1455 1450 1445 1440 1436 1433 1429 1423 1416 1410 1405 1401 1396 1391 1386 1382 1378 1376 1373 1370 1368 1365 1362 1360 1358 1357 1355 1354
1457 1456 1456 1457 1458 1459 1461 1462 1462 1463 1462 1461 1461 1460 1458 1455 1451 1447 1442 1437 1433 1430 1425 1419 1413 1408 1404 1399 1395 1390 1386 1381 1377 1375 1372 1370 1368 1365 1363 1361 1359 1357 1356 1355
1454 1453 1453 1454 1455 1456 1457 1458 1458 1458 1457 1457 1456 1455 1454 1451 1447 1443 1439 1436 1433 1428 1423 1417 1411 1407 1402 1398 1393 1389 1385 1381 1377 1375 1372 1370 1368 1366 1364 1362 1360 1358 1357 1355
1453 1452 1451 1451 1452 1452 1453 1453 1453 1453 1452 1452 1451 1450 1449 1446 1443 1440 1436 1434 1431 1426 1421 1416 1411 1406 1401 1397 1393 1389 1385 1381 1377 1374 1372 1370 1369 1368 1366 1364 1362 1360 1358 1356
1453 1451 1450 1450 1450 1449 1448 1449 1449 1449 1448 1447 1446 1446 1445 1443 1441 1437 1434 1431 1427 1423 1419 1415 1411 1406 1401 1396 1392 1389 1385 1381 1378 1375 1372 1371 1369 1369 1368 1366 1364 1363 1361 1359
1453 1450 1448 1447 1447 1446 1445 1445 1445 1445 1444 1443 1442 1441 1441 1439 1437 1435 1433 1429 1425 1421 1417 1414 1410 1405 1400 1396 1392 1389 1385 1382 1379 1375 1373 1371 1370 1370 1369 1368 1367 1366 1365 1363
1450 1447 1445 1444 1442 1441 1440 1440 1440 1439 1439 1438 1437 1437 1436 1435 1434 1432 1429 1425 1422 1418 1416 1413 1409 1404 1400 1396 1392 1388 1385 1382 1379 1376 1374 1372 1371 1371 1370 1370 1370 1369 1368 1367
1446 1444 1441 1439 1436 1434 1434 1433 1433 1432 1432 1432 1432 1431 1431 1430 1430 1428 1425 1422 1419 1416 1414 1412 1408 1404 1400 1396 1391 1388 1385 1382 1379 1377 1375 1373 1372 1372 1372 1372 1372 1372 1372 1371
1440 1438 1435 1432 1430 1427 1426 1425 1425 1424 1424 1425 1425 1425 1426 1425 1424 1423 1421 1419 1417 1414 1412 1410 1407 1403 1399 1395 1391 1388 1385 1381 1379 1376 1375 1373 1373 1373 1372 1373 1373 1374 1375 1375
1433 1430 1426 1424 1421 1420 1418 1417 1416 1415 1415 1416 1417 1417 1419 1419 1419 1419 1418 1417 1415 1413 1411 1408 1406 1403 1399 1395 1391 1388 1384 1381 1378 1376 1375 1374 1373 1373 1373 1373 1374 1376 1377 1377